| time (UTC) | temp F | wind direction | speed MPH | gust MPH | rain 1hr in | rain 24hr in | rain mn in | humidity % | barometer mb |
| 20260502220604 | 54 | 301 | 1.0 | 2.0 | 0.02 | 0.02 | 0.02 | 1009.9 | |
| 20260502215605 | 54 | 301 | 0.0 | 2.0 | 0.00 | 0.00 | 0.00 | 1010.2 | |
| 20260502215104 | 54 | 301 | 1.0 | 2.0 | 0.00 | 0.00 | 0.00 | 1010.2 | |
| 20260502214604 | 54 | 302 | 2.0 | 2.0 | 0.00 | 0.00 | 0.00 | 1010.2 | |
| 20260502214104 | 54 | 302 | 2.0 | 2.0 | 0.00 | 0.00 | 0.00 | 1010.2 | |
| 20260502213604 | 55 | 302 | 0.0 | 0.0 | 0.00 | 0.00 | 0.00 | 1010.2 | |
| 20260502213104 | 55 | 302 | 0.0 | 0.0 | 0.00 | 0.00 | 0.00 | 1010.2 | |
| 20260502212604 | 55 | 302 | 0.0 | 0.0 | 0.00 | 0.00 | 0.00 | 1010.2 | |
| 20260502212104 | 55 | 303 | 0.0 | 0.0 | 0.00 | 0.00 | 0.00 | 1010.2 | |
| 20260502211604 | 55 | 303 | 0.0 | 0.0 | 0.00 | 0.00 | 0.00 | 1010.2 | |
| 20260502211105 | 55 | 303 | 2.0 | 2.0 | 0.00 | 0.00 | 0.00 | 1010.2 | |
| 20260502210603 | 55 | 303 | 0.0 | 0.0 | 0.00 | 0.00 | 0.00 | 1010.2 | |
| 20260502210104 | 55 | 304 | 0.0 | 0.0 | 0.00 | 0.00 | 0.00 | 1010.3 | |
| 20260502205604 | 56 | 304 | 0.0 | 0.0 | 0.00 | 0.00 | 0.00 | 1010.3 | |
| 20260502205104 | 56 | 304 | 0.0 | 0.0 | 0.00 | 0.00 | 0.00 | 1010.3 | |
| 20260502204604 | 56 | 304 | 0.0 | 0.0 | 0.00 | 0.00 | 0.00 | 1010.3 | |
| 20260502204105 | 56 | 304 | 0.0 | 0.0 | 0.00 | 0.00 | 0.00 | 1010.3 | |
| 20260502203603 | 56 | 304 | 0.0 | 0.0 | 0.00 | 0.00 | 0.00 | 1010.3 | |
| 20260502203104 | 56 | 305 | 0.0 | 0.0 | 0.00 | 0.00 | 0.00 | 1010.3 | |
| 20260502202604 | 56 | 305 | 0.0 | 0.0 | 0.00 | 0.00 | 0.00 | 1010.3 | |
| 20260502202105 | 56 | 305 | 0.0 | 0.0 | 0.00 | 0.00 | 0.00 | 1010.3 | |
| 20260502201603 | 56 | 305 | 0.0 | 0.0 | 0.00 | 0.00 | 0.00 | 1010.3 | |
| 20260502201104 | 56 | 306 | 0.0 | 0.0 | 0.00 | 0.00 | 0.00 | 1010.3 | |
| 20260502200603 | 56 | 306 | 0.0 | 0.0 | 0.00 | 0.00 | 0.00 | 1010.3 | |
| 20260502200104 | 56 | 306 | 0.0 | 0.0 | 0.00 | 0.00 | 0.00 | 1010.4 | |
| 20260502195604 | 56 | 307 | 0.0 | 0.0 | 0.00 | 0.00 | 0.00 | 1010.4 | |
| 20260502194104 | 57 | 308 | 0.0 | 0.0 | 0.00 | 0.00 | 0.00 | 1010.4 | |
| 20260502193603 | 57 | 308 | 0.0 | 0.0 | 0.00 | 0.00 | 0.00 | 1010.4 | |
| 20260502193104 | 57 | 309 | 0.0 | 0.0 | 0.00 | 0.00 | 0.00 | 1010.4 | |
| 20260502192604 | 57 | 309 | 0.0 | 0.0 | 0.00 | 0.00 | 0.00 | 1010.4 | |
| 20260502192103 | 57 | 310 | 0.0 | 0.0 | 0.00 | 0.00 | 0.00 | 1010.4 | |
| 20260502191104 | 58 | 311 | 0.0 | 0.0 | 0.00 | 0.00 | 0.00 | 1010.4 | |
| 20260502190604 | 58 | 314 | 0.0 | 0.0 | 0.00 | 0.02 | 0.00 | 1010.4 | |
| 20260502190104 | 58 | 314 | 0.0 | 0.0 | 0.00 | 0.04 | 0.00 | 1010.7 | |
| 20260502185604 | 58 | 315 | 2.0 | 2.0 | 0.00 | 0.06 | 0.00 | 1010.7 | |
| 20260502185104 | 58 | 316 | 2.0 | 2.0 | 0.00 | 0.06 | 0.00 | 1010.7 | |
| 20260502184604 | 58 | 316 | 0.0 | 0.0 | 0.00 | 0.06 | 0.00 | 1010.7 | |
| 20260502184104 | 58 | 317 | 0.0 | 0.0 | 0.00 | 0.06 | 0.00 | 1010.7 | |
| 20260502183603 | 58 | 318 | 0.0 | 0.0 | 0.00 | 0.06 | 0.00 | 1010.7 | |
| 20260502183106 | 58 | 319 | 0.0 | 0.0 | 0.00 | 0.06 | 0.00 | 1010.7 | |
| 20260502181604 | 59 | 321 | 0.0 | 0.0 | 0.00 | 0.06 | 0.00 | 1010.7 | |
| 20260502181104 | 59 | 322 | 0.0 | 0.0 | 0.00 | 0.06 | 0.00 | 1010.7 | |
| 20260502180604 | 59 | 323 | 0.0 | 0.0 | 0.00 | 0.06 | 0.00 | 1010.7 | |
| 20260502180104 | 59 | 325 | 0.0 | 0.0 | 0.00 | 0.06 | 0.00 | 1011.0 | |
| 20260502170104 | 61 | 339 | 2.0 | 2.0 | 0.00 | 0.09 | 0.00 | 1011.6 | |
| 20260502164104 | 61 | 345 | 2.0 | 5.0 | 0.00 | 0.09 | 0.00 | 1011.6 | |
| 20260502163104 | 61 | 346 | 2.0 | 2.0 | 0.00 | 0.09 | 0.00 | 1011.6 | |
| 20260502162604 | 61 | 343 | 5.0 | 5.0 | 0.00 | 0.09 | 0.00 | 1011.6 | |
| 20260502162104 | 61 | 347 | 1.0 | 5.0 | 0.00 | 0.09 | 0.00 | 1011.6 | |
| 20260502161604 | 61 | 347 | 1.0 | 2.0 | 0.00 | 0.09 | 0.00 | 1011.6 | |
| 20260502160104 | 61 | 349 | 1.0 | 2.0 | 0.00 | 0.09 | 0.00 | 1012.5 | |
| 20260502152103 | 62 | 350 | 3.0 | 5.0 | 0.00 | 0.09 | 0.00 | 1012.5 | |
| 20260502151604 | 62 | 348 | 5.0 | 5.0 | 0.00 | 0.09 | 0.00 | 1012.5 | |
| 20260502150604 | 62 | 349 | 2.0 | 2.0 | 0.00 | 0.09 | 0.00 | 1012.5 | |
| 20260502150104 | 62 | 349 | 5.0 | 5.0 | 0.00 | 0.09 | 0.00 | 1013.0 | |
| 20260502130604 | 60 | 331 | 5.0 | 5.0 | 0.00 | 0.09 | 0.00 | 1013.6 | |
| 20260502130104 | 60 | 331 | 3.0 | 5.0 | 0.00 | 0.09 | 0.00 | 1014.2 | |
| 20260502123604 | 59 | 329 | 5.0 | 7.0 | 0.00 | 0.09 | 0.00 | 1014.2 | |
| 20260502123104 | 59 | 328 | 5.0 | 5.0 | 0.00 | 0.09 | 0.00 | 1014.2 | |
| 20260502122604 | 59 | 328 | 5.0 | 5.0 | 0.00 | 0.09 | 0.00 | 1014.2 | |
| 20260502121604 | 59 | 327 | 6.0 | 7.0 | 0.00 | 0.09 | 0.00 | 1014.2 | |
| 20260502121103 | 59 | 326 | 5.0 | 5.0 | 0.00 | 0.09 | 0.00 | 1014.2 | |
| 20260502120604 | 59 | 325 | 5.0 | 5.0 | 0.00 | 0.09 | 0.00 | 1014.2 | |
| 20260502120104 | 58 | 324 | 3.0 | 5.0 | 0.00 | 0.09 | 0.00 | 1014.2 | |
| 20260502115604 | 58 | 323 | 5.0 | 5.0 | 0.00 | 0.09 | 0.00 | 1014.2 | |
| 20260502115104 | 58 | 322 | 2.0 | 5.0 | 0.00 | 0.09 | 0.00 | 1014.2 | |
| 20260502113603 | 57 | 318 | 5.0 | 5.0 | 0.00 | 0.09 | 0.00 | 1014.2 | |
| 20260502113104 | 57 | 318 | 3.0 | 7.0 | 0.00 | 0.09 | 0.00 | 1014.2 | |
| 20260502112106 | 56 | 315 | 5.0 | 7.0 | 0.00 | 0.09 | 0.00 | 1014.2 | |
| 20260502111604 | 56 | 314 | 5.0 | 7.0 | 0.00 | 0.09 | 0.00 | 1014.2 | |
| 20260502111105 | 56 | 314 | 6.0 | 7.0 | 0.00 | 0.09 | 0.00 | 1014.2 | |
| 20260502110605 | 56 | 313 | 5.0 | 5.0 | 0.00 | 0.09 | 0.00 | 1014.2 | |
| 20260502110106 | 56 | 312 | 2.0 | 5.0 | 0.00 | 0.09 | 0.00 | 1014.2 | |
| 20260502105604 | 56 | 312 | 5.0 | 7.0 | 0.00 | 0.09 | 0.00 | 1014.2 | |
| 20260502105104 | 55 | 311 | 5.0 | 5.0 | 0.00 | 0.09 | 0.00 | 1014.2 | |
| 20260502104604 | 55 | 310 | 3.0 | 5.0 | 0.00 | 0.09 | 0.00 | 1014.2 | |
| 20260502104104 | 55 | 311 | 5.0 | 5.0 | 0.00 | 0.09 | 0.00 | 1014.2 | |
| 20260502103604 | 55 | 310 | 3.0 | 5.0 | 0.00 | 0.09 | 0.00 | 1014.2 | |
| 20260502103104 | 55 | 310 | 3.0 | 5.0 | 0.00 | 0.09 | 0.00 | 1014.2 | |
| 20260502102604 | 55 | 310 | 2.0 | 2.0 | 0.00 | 0.09 | 0.00 | 1014.2 | |
| 20260502102104 | 55 | 309 | 5.0 | 5.0 | 0.00 | 0.09 | 0.00 | 1014.2 | |
| 20260502101604 | 55 | 307 | 2.0 | 5.0 | 0.00 | 0.09 | 0.00 | 1014.2 | |
| 20260502101105 | 55 | 307 | 3.0 | 5.0 | 0.00 | 0.09 | 0.00 | 1014.2 | |
| 20260502100604 | 55 | 307 | 2.0 | 5.0 | 0.00 | 0.09 | 0.00 | 1014.2 | |
| 20260502100105 | 54 | 306 | 5.0 | 7.0 | 0.00 | 0.09 | 0.00 | 1014.6 | |
| 20260502091104 | 53 | 301 | 5.0 | 5.0 | 0.00 | 0.09 | 0.00 | 1014.6 | |
| 20260502090605 | 53 | 300 | 5.0 | 7.0 | 0.00 | 0.09 | 0.00 | 1014.6 | |
| 20260502080105 | 53 | 300 | 3.0 | 5.0 | 0.00 | 0.09 | 0.09 | 1014.4 | |
| 20260502071105 | 52 | 299 | 7.0 | 7.0 | 0.00 | 0.09 | 0.09 | 1014.4 | |
| 20260502070604 | 52 | 298 | 5.0 | 7.0 | 0.00 | 0.09 | 0.09 | 1014.4 | |
| 20260502065605 | 52 | 298 | 6.0 | 7.0 | 0.00 | 0.09 | 0.09 | 1014.2 | |
| 20260502064604 | 52 | 298 | 6.0 | 7.0 | 0.00 | 0.09 | 0.09 | 1014.2 | |
| 20260502064104 | 52 | 298 | 5.0 | 7.0 | 0.00 | 0.09 | 0.09 | 1014.2 | |
| 20260502063604 | 52 | 297 | 5.0 | 7.0 | 0.00 | 0.09 | 0.09 | 1014.2 | |
| 20260502063104 | 52 | 297 | 7.0 | 7.0 | 0.00 | 0.09 | 0.09 | 1014.2 | |
| 20260502062604 | 52 | 297 | 7.0 | 7.0 | 0.00 | 0.09 | 0.09 | 1014.2 | |
| 20260502062104 | 52 | 297 | 7.0 | 9.0 | 0.00 | 0.09 | 0.09 | 1014.2 | |
| 20260502061605 | 52 | 297 | 7.0 | 7.0 | 0.00 | 0.09 | 0.09 | 1014.2 | |
| 20260502060604 | 52 | 297 | 9.0 | 9.0 | 0.00 | 0.09 | 0.09 | 1014.2 | |
| 20260502060105 | 52 | 297 | 5.0 | 7.0 | 0.00 | 0.09 | 0.09 | 1014.2 | |
| 20260502055604 | 52 | 297 | 5.0 | 7.0 | 0.00 | 0.09 | 0.09 | 1014.2 | |
| 20260502055104 | 52 | 297 | 5.0 | 5.0 | 0.00 | 0.09 | 0.09 | 1014.2 | |
| 20260502054103 | 52 | 297 | 5.0 | 7.0 | 0.00 | 0.09 | 0.09 | 1014.2 | |
| 20260502053604 | 52 | 297 | 5.0 | 7.0 | 0.00 | 0.09 | 0.09 | 1014.2 | |
| 20260502053105 | 52 | 297 | 5.0 | 7.0 | 0.00 | 0.09 | 0.09 | 1014.2 | |
| 20260502052604 | 52 | 297 | 6.0 | 7.0 | 0.00 | 0.09 | 0.09 | 1014.2 | |
| 20260502052104 | 51 | 297 | 7.0 | 7.0 | 0.00 | 0.09 | 0.09 | 1014.2 | |
| 20260502051103 | 51 | 297 | 5.0 | 7.0 | 0.00 | 0.09 | 0.09 | 1014.2 | |
| 20260502050604 | 51 | 297 | 5.0 | 7.0 | 0.00 | 0.09 | 0.09 | 1014.2 | |
| 20260502050105 | 51 | 296 | 6.0 | 7.0 | 0.00 | 0.09 | 0.09 | 1014.4 | |
| 20260502045604 | 51 | 296 | 5.0 | 7.0 | 0.00 | 0.09 | 0.09 | 1014.4 | |
| 20260502045104 | 51 | 296 | 7.0 | 7.0 | 0.00 | 0.09 | 0.09 | 1014.4 | |
| 20260502044605 | 51 | 296 | 6.0 | 7.0 | 0.00 | 0.09 | 0.09 | 1014.4 | |
| 20260502043604 | 51 | 296 | 7.0 | 9.0 | 0.00 | 0.09 | 0.09 | 1014.4 | |
| 20260502043104 | 51 | 296 | 7.0 | 7.0 | 0.00 | 0.09 | 0.09 | 1014.4 | |
| 20260502042604 | 51 | 297 | 6.0 | 7.0 | 0.00 | 0.09 | 0.09 | 1014.4 | |
| 20260502042103 | 51 | 297 | 7.0 | 9.0 | 0.00 | 0.09 | 0.09 | 1014.4 | |
| 20260502041604 | 51 | 297 | 5.0 | 9.0 | 0.00 | 0.09 | 0.09 | 1014.4 | |
| 20260502040604 | 51 | 296 | 8.0 | 9.0 | 0.00 | 0.09 | 0.09 | 1014.4 | |
| 20260502040104 | 51 | 296 | 7.0 | 9.0 | 0.00 | 0.09 | 0.09 | 1014.6 | |
| 20260502035604 | 51 | 297 | 7.0 | 7.0 | 0.00 | 0.09 | 0.09 | 1014.6 | |
| 20260502034604 | 52 | 296 | 6.0 | 7.0 | 0.00 | 0.09 | 0.09 | 1014.6 | |
| 20260502034103 | 52 | 296 | 7.0 | 7.0 | 0.00 | 0.09 | 0.09 | 1014.6 | |
| 20260502033606 | 52 | 296 | 9.0 | 9.0 | 0.00 | 0.09 | 0.09 | 1014.6 | |
| 20260502033104 | 52 | 296 | 5.0 | 7.0 | 0.00 | 0.09 | 0.09 | 1014.6 | |
| 20260502032604 | 52 | 296 | 5.0 | 7.0 | 0.00 | 0.09 | 0.09 | 1014.6 | |
| 20260502032103 | 52 | 296 | 5.0 | 5.0 | 0.00 | 0.09 | 0.09 | 1014.6 | |
| 20260502031105 | 52 | 296 | 5.0 | 7.0 | 0.00 | 0.09 | 0.09 | 1014.6 | |
| 20260502030604 | 51 | 296 | 5.0 | 7.0 | 0.00 | 0.09 | 0.09 | 1014.6 | |
| 20260502030104 | 51 | 296 | 7.0 | 7.0 | 0.00 | 0.09 | 0.09 | 1015.2 | |
| 20260502025605 | 51 | 296 | 7.0 | 7.0 | 0.00 | 0.09 | 0.09 | 1015.2 | |
| 20260502025104 | 51 | 296 | 2.0 | 5.0 | 0.00 | 0.09 | 0.09 | 1015.2 | |
| 20260502024605 | 51 | 296 | 2.0 | 7.0 | 0.00 | 0.09 | 0.09 | 1015.2 | |
| 20260502024103 | 51 | 296 | 5.0 | 5.0 | 0.00 | 0.09 | 0.09 | 1015.2 | |
| 20260502023604 | 51 | 295 | 2.0 | 5.0 | 0.00 | 0.09 | 0.09 | 1015.2 | |
| 20260502023104 | 51 | 295 | 3.0 | 7.0 | 0.00 | 0.09 | 0.09 | 1015.2 | |
| 20260502022604 | 51 | 295 | 3.0 | 7.0 | 0.00 | 0.09 | 0.09 | 1015.2 | |
| 20260502022104 | 51 | 295 | 2.0 | 5.0 | 0.00 | 0.09 | 0.09 | 1015.2 | |
| 20260502021603 | 51 | 295 | 5.0 | 7.0 | 0.00 | 0.09 | 0.09 | 1015.2 | |
| 20260502021104 | 51 | 295 | 5.0 | 7.0 | 0.00 | 0.09 | 0.09 | 1015.2 | |
| 20260502020604 | 51 | 295 | 2.0 | 7.0 | 0.00 | 0.09 | 0.09 | 1015.2 | |
| 20260502020104 | 51 | 295 | 6.0 | 7.0 | 0.00 | 0.09 | 0.09 | 1015.8 | |
| 20260502014603 | 51 | 295 | 5.0 | 7.0 | 0.00 | 0.09 | 0.09 | 1015.8 | |
| 20260502014105 | 51 | 294 | 6.0 | 7.0 | 0.00 | 0.09 | 0.09 | 1015.8 | |
| 20260502013603 | 51 | 295 | 3.0 | 7.0 | 0.00 | 0.09 | 0.09 | 1015.8 | |
| 20260502013104 | 51 | 294 | 7.0 | 7.0 | 0.00 | 0.09 | 0.09 | 1015.8 | |
| 20260502012605 | 51 | 294 | 7.0 | 9.0 | 0.00 | 0.09 | 0.09 | 1015.8 | |
| 20260502011603 | 51 | 294 | 7.0 | 13.0 | 0.00 | 0.09 | 0.09 | 1015.8 | |
| 20260502011103 | 51 | 294 | 7.0 | 7.0 | 0.00 | 0.09 | 0.09 | 1015.8 | |
| 20260502010605 | 51 | 294 | 7.0 | 7.0 | 0.00 | 0.09 | 0.09 | 1015.8 | |
| 20260502010104 | 51 | 294 | 5.0 | 5.0 | 0.00 | 0.09 | 0.09 | 1015.8 | |
| 20260502005604 | 51 | 293 | 2.0 | 5.0 | 0.00 | 0.09 | 0.09 | 1015.8 | |
| 20260502004604 | 51 | 292 | 6.0 | 7.0 | 0.00 | 0.09 | 0.09 | 1015.8 | |
| 20260502003105 | 51 | 292 | 5.0 | 5.0 | 0.00 | 0.09 | 0.09 | 1015.8 | |
| 20260502002604 | 51 | 292 | 5.0 | 5.0 | 0.00 | 0.09 | 0.09 | 1015.8 | |
| 20260502002105 | 51 | 292 | 3.0 | 5.0 | 0.00 | 0.09 | 0.09 | 1015.8 | |
| 20260502001604 | 50 | 291 | 3.0 | 5.0 | 0.00 | 0.09 | 0.09 | 1015.8 | |
| 20260502001104 | 50 | 292 | 3.0 | 5.0 | 0.00 | 0.09 | 0.09 | 1015.8 | |
| 20260502000104 | 50 | 291 | 2.0 | 5.0 | 0.00 | 0.09 | 0.09 | 1016.0 | |
| 20260501235603 | 50 | 291 | 2.0 | 2.0 | 0.00 | 0.09 | 0.09 | 1016.0 | |
| 20260501235104 | 50 | 292 | 0.0 | 2.0 | 0.00 | 0.09 | 0.09 | 1016.0 | |
| 20260501234604 | 50 | 291 | 0.0 | 2.0 | 0.00 | 0.09 | 0.09 | 1016.0 | |
| 20260501234104 | 50 | 292 | 1.0 | 2.0 | 0.00 | 0.09 | 0.09 | 1016.0 | |
| 20260501233604 | 50 | 292 | 1.0 | 2.0 | 0.00 | 0.09 | 0.09 | 1016.0 | |
| 20260501233104 | 50 | 292 | 1.0 | 2.0 | 0.00 | 0.09 | 0.09 | 1016.0 | |
| 20260501232103 | 50 | 293 | 0.0 | 2.0 | 0.00 | 0.09 | 0.09 | 1016.0 | |
| 20260501231606 | 50 | 292 | 0.0 | 0.0 | 0.00 | 0.09 | 0.09 | 1016.0 | |
| 20260501230605 | 51 | 293 | 0.0 | 0.0 | 0.00 | 0.09 | 0.09 | 1016.0 | |
| 20260501230104 | 51 | 293 | 0.0 | 2.0 | 0.00 | 0.09 | 0.09 | 1016.2 | |
| 20260501225604 | 51 | 294 | 0.0 | 0.0 | 0.00 | 0.09 | 0.09 | 1016.2 | |
| 20260501225104 | 51 | 294 | 2.0 | 2.0 | 0.00 | 0.09 | 0.09 | 1016.2 | |
| 20260501224605 | 51 | 294 | 0.0 | 0.0 | 0.00 | 0.09 | 0.09 | 1016.2 | |
| 20260501224104 | 52 | 295 | 0.0 | 0.0 | 0.00 | 0.09 | 0.09 | 1016.2 | |
| 20260501223603 | 52 | 295 | 0.0 | 2.0 | 0.00 | 0.09 | 0.09 | 1016.2 | |
| 20260501223104 | 52 | 295 | 1.0 | 2.0 | 0.00 | 0.09 | 0.09 | 1016.2 | |
| 20260501222603 | 52 | 296 | 0.0 | 2.0 | 0.00 | 0.09 | 0.09 | 1016.2 | |
| 20260501221604 | 53 | 295 | 0.0 | 2.0 | 0.00 | 0.09 | 0.09 | 1016.2 | |
| 20260501221104 | 53 | 295 | 1.0 | 2.0 | 0.00 | 0.09 | 0.09 | 1016.2 |